WZZ5GT LTAC-LHBP

Flight info

Callsign WZZ5GT
Flight time 1h 48m
Altitude 38000
Route DEREL1T/03L DEREL UL602 MAKOL L602 KOMAN DCT ABRUT DCT NERDI DCT DEGET DCT KEZAL
Aircraft A20N/M-SDE2E3FGHIRWXY/LB1

Departure

Time 2026-05-04 16:34
Airport Esenboğa International Airport (LTAC)

Arrival

Time 2026-05-04 18:22
Airport Budapest Liszt Ferenc International Airport (LHBP)
Time Latitude Longitude Altitude Speed Heading
2026-05-04 16:14 40.11723 32.99607 3123 ft 0 kts 215°
2026-05-04 16:25 40.11731 32.99616 3123 ft 3 kts 211°
2026-05-04 16:26 40.11785 32.99660 3123 ft 0 kts 265°
2026-05-04 16:28 40.11786 32.99618 3123 ft 7 kts 278°
2026-05-04 16:29 40.11721 32.99209 3119 ft 15 kts 247°
2026-05-04 16:30 40.11743 32.98946 3117 ft 3 kts 217°
2026-05-04 16:31 40.11695 32.98825 3116 ft 10 kts 302°
2026-05-04 16:31 40.11719 32.98782 3115 ft 5 kts 307°
2026-05-04 16:32 40.11908 32.98515 3119 ft 12 kts 359°
2026-05-04 16:33 40.11978 32.98560 3120 ft 7 kts 35°
2026-05-04 16:33 40.12624 32.99172 3121 ft 120 kts 36°
2026-05-04 16:34 40.14407 33.00881 3701 ft 177 kts 33°
2026-05-04 16:34 40.15430 33.01929 4100 ft 197 kts 36°
2026-05-04 16:35 40.18907 33.05820 5923 ft 233 kts 38°
2026-05-04 16:35 40.23646 33.06180 7590 ft 275 kts 324°
2026-05-04 16:36 40.25002 33.04331 8164 ft 295 kts 311°
2026-05-04 16:36 40.27652 32.99853 9341 ft 324 kts 309°
2026-05-04 16:37 40.30478 32.95100 10457 ft 335 kts 308°
2026-05-04 16:37 40.31930 32.92687 11005 ft 338 kts 308°
2026-05-04 16:37 40.34960 32.87624 11933 ft 372 kts 306°
2026-05-04 16:38 40.38097 32.81852 12596 ft 409 kts 304°
2026-05-04 16:39 40.43197 32.72341 14244 ft 433 kts 304°
2026-05-04 16:39 40.46700 32.65803 15363 ft 440 kts 304°
2026-05-04 16:40 40.50246 32.59176 16520 ft 447 kts 304°
2026-05-04 16:40 40.53818 32.52485 17694 ft 454 kts 304°
2026-05-04 16:41 40.57474 32.45621 18811 ft 461 kts 304°
2026-05-04 16:41 40.63058 32.35107 20272 ft 474 kts 304°
2026-05-04 16:42 40.68776 32.24303 21697 ft 484 kts 305°
2026-05-04 16:43 40.72632 32.16930 22569 ft 492 kts 304°
2026-05-04 16:43 40.76414 32.09362 23401 ft 500 kts 303°
2026-05-04 16:43 40.78315 32.05504 23756 ft 504 kts 303°
2026-05-04 16:44 40.86020 31.89871 23975 ft 509 kts 303°
2026-05-04 16:45 40.89896 31.82011 23976 ft 510 kts 303°
2026-05-04 16:46 40.95703 31.70204 24547 ft 514 kts 303°
2026-05-04 16:46 40.99609 31.62235 25365 ft 517 kts 303°
2026-05-04 16:47 41.03523 31.54227 26214 ft 519 kts 302°
2026-05-04 16:47 41.07434 31.46204 27058 ft 519 kts 302°
2026-05-04 16:48 41.13325 31.34082 28287 ft 521 kts 302°
2026-05-04 16:48 41.15286 31.30035 28693 ft 522 kts 302°
2026-05-04 16:49 41.19186 31.21972 29447 ft 524 kts 301°
2026-05-04 16:49 41.23117 31.13821 30219 ft 524 kts 301°
2026-05-04 16:50 41.27019 31.05714 31196 ft 516 kts 301°
2026-05-04 16:50 41.30845 30.97744 32151 ft 508 kts 301°
2026-05-04 16:51 41.34621 30.89854 33014 ft 503 kts 300°
2026-05-04 16:51 41.36502 30.85916 33439 ft 500 kts 300°
2026-05-04 16:51 41.40208 30.78142 34192 ft 495 kts 300°
2026-05-04 16:52 41.43879 30.70432 34649 ft 495 kts 301°
2026-05-04 16:52 41.45728 30.66571 34884 ft 495 kts 301°
2026-05-04 16:53 41.49451 30.58819 35375 ft 494 kts 301°
2026-05-04 16:53 41.54974 30.47279 36054 ft 493 kts 301°
2026-05-04 16:54 41.56816 30.43419 36264 ft 493 kts 301°
2026-05-04 16:55 41.64166 30.27962 37150 ft 490 kts 301°
2026-05-04 16:55 41.67777 30.20337 37638 ft 487 kts 301°
2026-05-04 16:56 41.71398 30.12674 38000 ft 487 kts 301°
2026-05-04 16:56 41.76815 30.01168 37979 ft 486 kts 301°
2026-05-04 16:57 41.82213 29.89658 37982 ft 486 kts 301°
2026-05-04 16:58 41.89397 29.74273 37996 ft 486 kts 301°
2026-05-04 17:00 42.00101 29.51206 38003 ft 486 kts 301°
2026-05-04 17:01 42.10741 29.33496 38006 ft 487 kts 309°
2026-05-04 17:02 42.19515 29.19661 38464 ft 482 kts 309°
2026-05-04 17:02 42.23814 29.12846 38098 ft 476 kts 309°
2026-05-04 17:03 42.25967 29.09429 38022 ft 479 kts 309°
2026-05-04 17:03 42.32499 28.99029 38021 ft 485 kts 310°
2026-05-04 17:04 42.41162 28.85170 38029 ft 483 kts 310°
2026-05-04 17:05 42.49741 28.71179 38036 ft 482 kts 309°
2026-05-04 17:06 42.56126 28.60643 38036 ft 482 kts 309°
2026-05-04 17:07 42.61792 28.51280 38039 ft 482 kts 310°
2026-05-04 17:07 42.66739 28.43085 38046 ft 482 kts 310°
2026-05-04 17:08 42.73106 28.32503 38049 ft 481 kts 309°
2026-05-04 17:09 42.77338 28.25448 38047 ft 481 kts 310°
2026-05-04 17:09 42.81540 28.18428 38055 ft 480 kts 310°
2026-05-04 17:10 42.92063 28.00770 38055 ft 479 kts 310°
2026-05-04 17:11 42.96242 27.93728 38058 ft 478 kts 310°
2026-05-04 17:12 43.02513 27.83131 38046 ft 477 kts 310°
2026-05-04 17:13 43.12889 27.65511 38045 ft 474 kts 309°
2026-05-04 17:14 43.21145 27.51413 38045 ft 473 kts 309°
2026-05-04 17:15 43.27315 27.40835 38049 ft 473 kts 309°
2026-05-04 17:16 43.35488 27.26762 38040 ft 472 kts 309°
2026-05-04 17:17 43.43655 27.12633 38044 ft 471 kts 309°
2026-05-04 17:18 43.51764 26.98535 38041 ft 470 kts 309°
2026-05-04 17:19 43.59179 26.85585 38041 ft 469 kts 309°
2026-05-04 17:20 43.67224 26.71469 38043 ft 468 kts 309°
2026-05-04 17:20 43.73244 26.60861 38036 ft 467 kts 309°
2026-05-04 17:21 43.77237 26.53804 38048 ft 452 kts 309°
2026-05-04 17:21 43.81072 26.47016 38011 ft 447 kts 309°
2026-05-04 17:22 43.84874 26.40271 38037 ft 448 kts 309°
2026-05-04 17:23 43.92537 26.26613 38033 ft 448 kts 308°
2026-05-04 17:24 43.98274 26.16343 38033 ft 448 kts 308°
2026-05-04 17:25 44.05882 26.02671 38037 ft 448 kts 308°
2026-05-04 17:26 44.13506 25.88906 38035 ft 448 kts 308°
2026-05-04 17:27 44.22982 25.71707 38037 ft 448 kts 308°
2026-05-04 17:28 44.30548 25.57900 38030 ft 448 kts 308°
2026-05-04 17:29 44.41849 25.37157 38028 ft 447 kts 308°
2026-05-04 17:31 44.51249 25.19788 38027 ft 447 kts 308°
2026-05-04 17:32 44.60596 25.02412 38022 ft 447 kts 308°
2026-05-04 17:33 44.68084 24.88416 38020 ft 448 kts 308°
2026-05-04 17:34 44.75559 24.74376 38031 ft 449 kts 308°
2026-05-04 17:35 44.84878 24.56777 38028 ft 449 kts 307°
2026-05-04 17:36 44.88604 24.49710 38035 ft 449 kts 307°
2026-05-04 17:36 44.92323 24.42638 38042 ft 449 kts 307°
2026-05-04 17:37 44.96036 24.35561 38039 ft 449 kts 307°
2026-05-04 17:37 44.99737 24.28489 38046 ft 449 kts 307°
2026-05-04 17:38 45.03444 24.21387 38044 ft 448 kts 307°
2026-05-04 17:38 45.07139 24.14291 38050 ft 448 kts 307°
2026-05-04 17:39 45.12667 24.03643 38057 ft 448 kts 307°
2026-05-04 17:39 45.16364 23.96499 38062 ft 448 kts 307°
2026-05-04 17:40 45.20024 23.89410 38067 ft 448 kts 307°
2026-05-04 17:40 45.23702 23.82266 38074 ft 448 kts 307°
2026-05-04 17:41 45.27378 23.75110 38078 ft 448 kts 307°
2026-05-04 17:41 45.31038 23.67966 38081 ft 447 kts 307°
2026-05-04 17:42 45.34698 23.60806 38088 ft 447 kts 307°
2026-05-04 17:42 45.38349 23.53646 38088 ft 447 kts 307°
2026-05-04 17:43 45.42005 23.46455 38086 ft 448 kts 307°
2026-05-04 17:43 45.45656 23.39258 38090 ft 448 kts 307°
2026-05-04 17:44 45.49275 23.32105 38088 ft 447 kts 307°
2026-05-04 17:44 45.52909 23.24905 38090 ft 448 kts 307°
2026-05-04 17:45 45.56549 23.17674 38085 ft 447 kts 307°
2026-05-04 17:45 45.60174 23.10454 38085 ft 447 kts 307°
2026-05-04 17:46 45.63768 23.03279 38080 ft 447 kts 307°
2026-05-04 17:46 45.67389 22.96030 38080 ft 447 kts 307°
2026-05-04 17:47 45.71001 22.88780 38078 ft 447 kts 307°
2026-05-04 17:47 45.74608 22.81523 38080 ft 447 kts 307°
2026-05-04 17:48 45.78212 22.74253 38077 ft 447 kts 307°
2026-05-04 17:48 45.81799 22.66997 37434 ft 444 kts 307°
2026-05-04 17:49 45.83586 22.63376 36828 ft 445 kts 307°
2026-05-04 17:49 45.85356 22.59785 36242 ft 447 kts 307°
2026-05-04 17:49 45.87153 22.56136 35664 ft 449 kts 307°
2026-05-04 17:49 45.88977 22.52427 35088 ft 450 kts 307°
2026-05-04 17:50 45.90759 22.48798 34533 ft 451 kts 307°
2026-05-04 17:50 45.92563 22.45118 34022 ft 451 kts 307°
2026-05-04 17:50 45.94373 22.41422 33518 ft 452 kts 307°
2026-05-04 17:50 45.96177 22.37733 32970 ft 453 kts 307°
2026-05-04 17:51 45.98001 22.34001 32454 ft 454 kts 307°
2026-05-04 17:51 45.99817 22.30278 32134 ft 456 kts 307°
2026-05-04 17:51 46.03467 22.22782 32071 ft 457 kts 307°
2026-05-04 17:52 46.07089 22.15320 32072 ft 457 kts 307°
2026-05-04 17:52 46.10720 22.07819 32070 ft 457 kts 307°
2026-05-04 17:53 46.14356 22.00289 32073 ft 456 kts 307°
2026-05-04 17:53 46.17982 21.92761 32072 ft 456 kts 307°
2026-05-04 17:54 46.21594 21.85242 32070 ft 456 kts 307°
2026-05-04 17:54 46.25204 21.77706 32067 ft 456 kts 307°
2026-05-04 17:55 46.28813 21.70151 32071 ft 456 kts 307°
2026-05-04 17:55 46.32386 21.62652 32067 ft 455 kts 307°
2026-05-04 17:56 46.35973 21.55104 32070 ft 455 kts 307°
2026-05-04 17:56 46.39559 21.47539 32069 ft 455 kts 307°
2026-05-04 17:57 46.43121 21.40001 32066 ft 454 kts 307°
2026-05-04 17:57 46.46689 21.32433 32067 ft 454 kts 307°
2026-05-04 17:58 46.50504 21.25147 32064 ft 451 kts 314°
2026-05-04 17:58 46.54728 21.18498 32064 ft 451 kts 315°
2026-05-04 17:59 46.56860 21.15188 31800 ft 445 kts 315°
2026-05-04 17:59 46.58968 21.11919 31373 ft 446 kts 315°
2026-05-04 17:59 46.63261 21.05263 30515 ft 454 kts 315°
2026-05-04 18:00 46.65428 21.01897 29970 ft 454 kts 315°
2026-05-04 18:00 46.67582 20.98546 29323 ft 453 kts 315°
2026-05-04 18:00 46.69731 20.95199 28679 ft 449 kts 315°
2026-05-04 18:00 46.71862 20.91877 28052 ft 446 kts 315°
2026-05-04 18:01 46.73950 20.88616 27448 ft 442 kts 315°
2026-05-04 18:01 46.76052 20.85332 26843 ft 439 kts 314°
2026-05-04 18:01 46.78126 20.82087 26263 ft 436 kts 314°
2026-05-04 18:02 46.82398 20.75397 25148 ft 468 kts 314°
2026-05-04 18:02 46.84637 20.71883 24591 ft 475 kts 314°
2026-05-04 18:02 46.86890 20.68340 24053 ft 476 kts 314°
2026-05-04 18:02 46.89146 20.64787 23499 ft 475 kts 314°
2026-05-04 18:03 46.91389 20.61249 22867 ft 472 kts 314°
2026-05-04 18:03 46.93591 20.57772 22256 ft 469 kts 314°
2026-05-04 18:03 46.95760 20.54223 21643 ft 466 kts 310°
2026-05-04 18:03 46.97736 20.50476 21051 ft 462 kts 308°
2026-05-04 18:04 46.99662 20.46711 20468 ft 459 kts 307°
2026-05-04 18:04 47.01548 20.42971 19900 ft 456 kts 307°
2026-05-04 18:04 47.05248 20.35551 18802 ft 449 kts 307°
2026-05-04 18:05 47.07075 20.31865 18236 ft 446 kts 307°
2026-05-04 18:05 47.08893 20.28189 17625 ft 443 kts 306°
2026-05-04 18:05 47.10693 20.24544 17022 ft 440 kts 306°
2026-05-04 18:05 47.12484 20.20909 16424 ft 437 kts 306°
2026-05-04 18:06 47.16018 20.13721 15301 ft 431 kts 306°
2026-05-04 18:06 47.17768 20.10157 14931 ft 429 kts 306°
2026-05-04 18:06 47.19506 20.06608 14572 ft 427 kts 306°
2026-05-04 18:07 47.20659 20.04253 14332 ft 426 kts 306°
2026-05-04 18:07 47.22387 20.00719 14063 ft 425 kts 305°
2026-05-04 18:07 47.24110 19.97192 14005 ft 424 kts 305°
2026-05-04 18:07 47.25830 19.93665 14001 ft 423 kts 305°
2026-05-04 18:08 47.27540 19.90155 13812 ft 416 kts 305°
2026-05-04 18:08 47.29216 19.86709 13262 ft 415 kts 305°
2026-05-04 18:08 47.30897 19.83249 12699 ft 417 kts 304°
2026-05-04 18:08 47.32591 19.79756 12138 ft 416 kts 304°
2026-05-04 18:09 47.35911 19.72902 11058 ft 410 kts 304°
2026-05-04 18:09 47.39151 19.66198 9992 ft 389 kts 304°
2026-05-04 18:10 47.40695 19.62998 9419 ft 377 kts 304°
2026-05-04 18:10 47.42178 19.59918 8858 ft 366 kts 304°
2026-05-04 18:10 47.43633 19.56895 8299 ft 356 kts 304°
2026-05-04 18:10 47.45048 19.53950 7753 ft 347 kts 304°
2026-05-04 18:11 47.46435 19.51061 7211 ft 340 kts 304°
2026-05-04 18:11 47.47791 19.48234 6692 ft 333 kts 304°
2026-05-04 18:11 47.49112 19.45478 6333 ft 321 kts 304°
2026-05-04 18:11 47.50380 19.42830 5974 ft 311 kts 303°
2026-05-04 18:12 47.51595 19.40290 5625 ft 302 kts 303°
2026-05-04 18:12 47.52791 19.37786 5274 ft 295 kts 303°
2026-05-04 18:12 47.53957 19.35346 5025 ft 282 kts 302°
2026-05-04 18:12 47.55047 19.33066 4999 ft 265 kts 302°
2026-05-04 18:13 47.56102 19.30850 5000 ft 263 kts 302°
2026-05-04 18:13 47.57142 19.28660 5000 ft 257 kts 302°
2026-05-04 18:13 47.59166 19.24400 5004 ft 252 kts 302°
2026-05-04 18:14 47.60176 19.22271 5001 ft 253 kts 302°
2026-05-04 18:14 47.61186 19.20141 4999 ft 252 kts 302°
2026-05-04 18:14 47.62199 19.18007 4999 ft 252 kts 302°
2026-05-04 18:15 47.64218 19.13743 4999 ft 252 kts 302°
2026-05-04 18:15 47.66122 19.09414 4995 ft 250 kts 289°
2026-05-04 18:15 47.66422 19.06954 4994 ft 238 kts 263°
2026-05-04 18:16 47.65930 19.04693 4994 ft 228 kts 234°
2026-05-04 18:16 47.64894 19.02929 4998 ft 226 kts 223°
2026-05-04 18:16 47.63739 19.01353 4997 ft 226 kts 220°
2026-05-04 18:17 47.61120 18.98999 4991 ft 223 kts 185°
2026-05-04 18:17 47.59630 18.99419 5000 ft 211 kts 161°
2026-05-04 18:17 47.57321 19.01862 4965 ft 203 kts 136°
2026-05-04 18:18 47.56412 19.03434 4692 ft 200 kts 132°
2026-05-04 18:18 47.55518 19.05065 4191 ft 207 kts 134°
2026-05-04 18:18 47.54592 19.06671 3862 ft 198 kts 135°
2026-05-04 18:18 47.53704 19.08102 3668 ft 179 kts 136°
2026-05-04 18:19 47.52079 19.10582 3059 ft 166 kts 141°
2026-05-04 18:19 47.51268 19.11792 2706 ft 165 kts 136°
2026-05-04 18:19 47.50489 19.13055 2267 ft 166 kts 136°
2026-05-04 18:20 47.49724 19.14319 1948 ft 164 kts 136°
2026-05-04 18:20 47.48949 19.15561 1806 ft 164 kts 137°
2026-05-04 18:20 47.48163 19.16789 1583 ft 165 kts 137°
2026-05-04 18:20 47.47378 19.18032 1269 ft 166 kts 134°
2026-05-04 18:21 47.46613 19.19302 1043 ft 169 kts 133°
2026-05-04 18:21 47.45826 19.20565 770 ft 166 kts 134°
2026-05-04 18:21 47.45034 19.21824 580 ft 168 kts 133°
2026-05-04 18:21 47.44248 19.23086 462 ft 160 kts 132°
2026-05-04 18:22 47.43670 19.24019 460 ft 93 kts 132°
2026-05-04 18:22 47.43307 19.24605 458 ft 56 kts 133°
2026-05-04 18:22 47.43148 19.24863 460 ft 27 kts 132°
2026-05-04 18:22 47.43112 19.25055 461 ft 19 kts 64°
2026-05-04 18:23 47.43170 19.25152 461 ft 0 kts 42°
2026-05-04 18:23 47.43198 19.25190 462 ft 10 kts 41°
2026-05-04 18:23 47.43236 19.25239 463 ft 0 kts 41°
2026-05-04 18:23 47.43237 19.25241 463 ft 1 kts 41°
2026-05-04 18:24 47.43257 19.25267 465 ft 7 kts 42°
2026-05-04 18:24 47.43304 19.25330 470 ft 11 kts 42°
2026-05-04 18:24 47.43320 19.25351 469 ft 5 kts 42°
2026-05-04 18:24 47.43359 19.25403 471 ft 11 kts 43°
2026-05-04 18:25 47.43424 19.25494 479 ft 15 kts 43°
2026-05-04 18:25 47.43512 19.25611 477 ft 14 kts 46°
2026-05-04 18:25 47.43494 19.25729 479 ft 5 kts 130°
2026-05-04 18:25 47.43481 19.25763 476 ft 8 kts 109°
2026-05-04 18:26 47.43452 19.25852 479 ft 8 kts 158°
2026-05-04 18:26 47.43391 19.25875 481 ft 13 kts 196°
2026-05-04 18:26 47.43370 19.25855 476 ft 0 kts 221°